TimeEDT,TemperatureF,Dew PointF,Humidity,Sea Level PressureIn,VisibilityMPH,Wind Direction,Wind SpeedMPH,Gust SpeedMPH,PrecipitationIn,Events,Conditions,WindDirDegrees,DateUTC
12:15 AM,53.6,42.8,67,29.82,10.0,WNW,5.8,-,N/A,,Clear,300,2013-11-02 04:15:00
12:35 AM,51.8,42.8,71,29.82,10.0,West,3.5,-,N/A,,Clear,270,2013-11-02 04:35:00
12:55 AM,50.0,42.8,76,29.82,10.0,West,3.5,-,N/A,,Clear,280,2013-11-02 04:55:00
1:15 AM,50.0,42.8,76,29.82,10.0,West,3.5,-,N/A,,Clear,260,2013-11-02 05:15:00
1:35 AM,48.2,42.8,82,29.82,10.0,West,4.6,-,N/A,,Clear,260,2013-11-02 05:35:00
1:55 AM,48.2,42.8,82,29.82,10.0,West,4.6,-,N/A,,Clear,270,2013-11-02 05:55:00
2:15 AM,50.0,41.0,71,29.82,10.0,WNW,9.2,-,N/A,,Clear,290,2013-11-02 06:15:00
2:35 AM,51.8,41.0,67,29.82,10.0,WNW,10.4,-,N/A,,Clear,300,2013-11-02 06:35:00
2:55 AM,50.0,42.8,76,29.83,10.0,WNW,11.5,17.3,N/A,,Clear,300,2013-11-02 06:55:00
3:15 AM,50.0,41.0,71,29.83,10.0,NW,8.1,-,N/A,,Clear,310,2013-11-02 07:15:00
3:35 AM,48.2,41.0,76,29.84,10.0,WNW,6.9,-,N/A,,Clear,300,2013-11-02 07:35:00
3:55 AM,48.2,41.0,76,29.84,10.0,NW,5.8,-,N/A,,Clear,310,2013-11-02 07:55:00
4:15 AM,46.4,41.0,81,29.84,10.0,WNW,5.8,-,N/A,,Clear,300,2013-11-02 08:15:00
4:35 AM,46.4,41.0,81,29.84,10.0,NW,4.6,-,N/A,,Clear,310,2013-11-02 08:35:00
4:55 AM,46.4,41.0,81,29.84,10.0,NW,4.6,-,N/A,,Clear,310,2013-11-02 08:55:00
5:15 AM,44.6,39.2,81,29.85,10.0,WNW,4.6,-,N/A,,Clear,290,2013-11-02 09:15:00
5:35 AM,44.6,39.2,81,29.85,10.0,West,3.5,-,N/A,,Clear,270,2013-11-02 09:35:00
5:55 AM,42.8,39.2,87,29.85,10.0,South,3.5,-,N/A,,Clear,190,2013-11-02 09:55:00
6:15 AM,41.0,39.2,93,29.86,10.0,Calm,Calm,-,N/A,,Clear,0,2013-11-02 10:15:00
6:35 AM,41.0,37.4,87,29.86,10.0,Calm,Calm,-,N/A,,Clear,0,2013-11-02 10:35:00
6:55 AM,41.0,37.4,87,29.86,10.0,Calm,Calm,-,N/A,,Scattered Clouds,0,2013-11-02 10:55:00
7:15 AM,41.0,39.2,93,29.87,10.0,Calm,Calm,-,N/A,,Overcast,0,2013-11-02 11:15:00
7:35 AM,41.0,39.2,93,29.87,10.0,Calm,Calm,-,N/A,,Overcast,0,2013-11-02 11:35:00
7:55 AM,41.0,41.0,100,29.87,10.0,Calm,Calm,-,N/A,,Overcast,0,2013-11-02 11:55:00
8:15 AM,42.8,41.0,93,29.87,10.0,Calm,Calm,-,N/A,,Overcast,0,2013-11-02 12:15:00
8:35 AM,42.8,41.0,93,29.88,10.0,Calm,Calm,-,N/A,,Overcast,0,2013-11-02 12:35:00
8:55 AM,42.8,41.0,93,29.90,10.0,SW,3.5,-,N/A,,Overcast,230,2013-11-02 12:55:00
9:15 AM,44.6,41.0,87,29.90,10.0,SW,3.5,-,N/A,,Overcast,230,2013-11-02 13:15:00
9:35 AM,44.6,41.0,87,29.91,10.0,Calm,Calm,-,N/A,,Overcast,0,2013-11-02 13:35:00
9:55 AM,44.6,41.0,87,29.92,10.0,Calm,Calm,-,N/A,,Mostly Cloudy,0,2013-11-02 13:55:00
10:15 AM,46.4,41.0,81,29.93,10.0,West,4.6,-,N/A,,Scattered Clouds,260,2013-11-02 14:15:00
10:35 AM,50.0,42.8,76,29.93,10.0,WSW,5.8,-,N/A,,Clear,250,2013-11-02 14:35:00
10:55 AM,51.8,41.0,67,29.93,10.0,West,3.5,-,N/A,,Scattered Clouds,270,2013-11-02 14:55:00
11:15 AM,51.8,41.0,67,29.93,10.0,West,9.2,-,N/A,,Mostly Cloudy,270,2013-11-02 15:15:00
11:35 AM,51.8,37.4,58,29.93,10.0,NW,6.9,-,N/A,,Mostly Cloudy,320,2013-11-02 15:35:00
11:55 AM,51.8,39.2,62,29.94,10.0,NW,8.1,-,N/A,,Scattered Clouds,310,2013-11-02 15:55:00
1:15 PM,55.4,35.6,47,29.94,10.0,NW,8.1,17.3,N/A,,Mostly Cloudy,310,2013-11-02 17:15:00
1:35 PM,55.4,35.6,47,29.94,10.0,WNW,15.0,19.6,N/A,,Scattered Clouds,290,2013-11-02 17:35:00
1:55 PM,53.6,37.4,54,29.94,10.0,WNW,9.2,-,N/A,,Scattered Clouds,290,2013-11-02 17:55:00
2:15 PM,55.4,37.4,51,29.93,10.0,WNW,10.4,-,N/A,,Scattered Clouds,300,2013-11-02 18:15:00
2:35 PM,53.6,35.6,51,29.93,10.0,WNW,10.4,-,N/A,,Scattered Clouds,300,2013-11-02 18:35:00
2:55 PM,55.4,37.4,51,29.93,10.0,WNW,6.9,-,N/A,,Clear,290,2013-11-02 18:55:00
3:15 PM,53.6,35.6,51,29.93,10.0,NW,8.1,21.9,N/A,Rain,Light Rain,320,2013-11-02 19:15:00
3:35 PM,51.8,37.4,58,29.94,10.0,NW,8.1,20.7,N/A,Rain,Rain,310,2013-11-02 19:35:00
3:55 PM,51.8,39.2,62,29.94,10.0,West,4.6,-,N/A,,Mostly Cloudy,270,2013-11-02 19:55:00
4:15 PM,51.8,39.2,62,29.95,10.0,North,11.5,17.3,N/A,Rain,Rain,360,2013-11-02 20:15:00
4:35 PM,51.8,37.4,58,29.95,10.0,NNW,5.8,-,N/A,,Overcast,340,2013-11-02 20:35:00
4:55 PM,50.0,41.0,71,29.95,7.0,WSW,8.1,18.4,N/A,Rain,Light Rain,250,2013-11-02 20:55:00
5:15 PM,48.2,42.8,82,29.96,10.0,WNW,11.5,-,N/A,,Overcast,290,2013-11-02 21:15:00
5:35 PM,46.4,42.8,87,29.98,10.0,WNW,6.9,-,N/A,,Overcast,290,2013-11-02 21:35:00
5:55 PM,46.4,42.8,87,29.99,10.0,West,6.9,-,N/A,,Light Drizzle,270,2013-11-02 21:55:00
6:15 PM,46.4,42.8,87,29.99,10.0,West,5.8,-,N/A,Rain,Light Rain,270,2013-11-02 22:15:00
6:35 PM,46.4,41.0,81,29.99,10.0,WNW,8.1,-,N/A,,Overcast,300,2013-11-02 22:35:00
6:55 PM,46.4,41.0,81,30.00,10.0,West,4.6,-,N/A,,Overcast,270,2013-11-02 22:55:00
7:15 PM,46.4,41.0,81,30.00,10.0,West,4.6,-,N/A,,Overcast,280,2013-11-02 23:15:00
7:35 PM,46.4,41.0,81,30.02,10.0,West,5.8,-,N/A,,Overcast,280,2013-11-02 23:35:00
7:55 PM,46.4,41.0,81,30.03,10.0,West,6.9,-,N/A,,Overcast,280,2013-11-02 23:55:00
8:15 PM,46.4,41.0,81,30.04,10.0,WNW,6.9,-,N/A,,Overcast,290,2013-11-03 00:15:00
8:35 PM,48.2,41.0,76,30.05,10.0,WNW,10.4,-,N/A,,Overcast,300,2013-11-03 00:35:00
8:55 PM,48.2,41.0,76,30.05,10.0,NW,8.1,-,N/A,,Overcast,310,2013-11-03 00:55:00
9:15 PM,46.4,41.0,81,30.06,10.0,NW,8.1,-,N/A,,Overcast,320,2013-11-03 01:15:00
9:35 PM,46.4,41.0,81,30.07,10.0,NW,6.9,-,N/A,,Mostly Cloudy,310,2013-11-03 01:35:00
9:55 PM,46.4,41.0,81,30.08,10.0,NW,6.9,-,N/A,,Scattered Clouds,310,2013-11-03 01:55:00
10:15 PM,46.4,41.0,81,30.09,10.0,NW,8.1,-,N/A,,Overcast,310,2013-11-03 02:15:00
10:35 PM,46.4,41.0,81,30.10,10.0,NW,5.8,-,N/A,,Overcast,310,2013-11-03 02:35:00
10:55 PM,46.4,41.0,81,30.10,10.0,NW,5.8,-,N/A,,Overcast,320,2013-11-03 02:55:00
11:15 PM,44.6,41.0,87,30.12,10.0,NNW,5.8,-,N/A,,Overcast,330,2013-11-03 03:15:00
11:35 PM,44.6,41.0,87,30.12,10.0,NNW,4.6,-,N/A,,Overcast,330,2013-11-03 03:35:00
11:55 PM,44.6,41.0,87,30.13,10.0,NNW,5.8,-,N/A,,Overcast,330,2013-11-03 03:55:00